Regional Weather Roundup
Issued by NWS New Orleans/Baton Rouge, LA

Home | Current Version | Previous Version | Text Only | Print | Product List | Glossary On
Versions: 1 2 3 4 5 6 7 8 9 10 11 12 13 14 15 16 17 18 19 20 21 22 23 24 25 26 27 28 29 30 31 32 33 34 35 36 37 38 39 40 41 42 43 44 45 46 47 48 49 50
000
ASUS44 KLIX 280810
RWRLIX
NEW ORLEANS REGIONAL WEATHER ROUNDUP
NATIONAL WEATHER SERVICE NEW ORLEANS LA
200 AM CST SUN DEC 28 2014

NOTE: "FAIR" INDICATES FEW OR NO CLOUDS BELOW 12,000 FEET WITH NO
      SIGNIFICANT WEATHER AND/OR OBSTRUCTIONS TO VISIBILITY.
      SKY/WX - SKY CONDITION AND SIGNIFICANT WEATHER.
      TMP - AIR TEMPERATURE.     DP    - DEWPOINT TEMPERATURE.
      RH  - RELATIVE HUMIDITY.   PRES  - PRESSURE.
      HI  - HEAT INDEX.          WCI   - WIND CHILL INDEX.

*  THESE STATIONS ARE NOT NWS OR FAA STATIONS AND ARE NOT UNDER
   NWS QUALITY CONTROL.

LAZ038-040-048-061>063-065>067-069-280900-
SOUTHEAST LOUISIANA

CITY           SKY/WX    TMP DP  RH WIND       PRES   REMARKS
N.O. AUDUBON     N/A     67  67  99 MISG        N/A
N.O. INTL ARPT CLOUDY    68  67  96 SE6       30.05S FOG
N.O. LAKEFRONT CLOUDY    70  67  90 S10       30.06R FOG
N.O. DOWNTOWN* CLOUDY    70  64  83 S6        30.06S
SLIDELL        CLOUDY    68  67  96 S5        30.05R FOG
BATON ROUGE    CLOUDY    67  65  93 W3        30.05R FOG
BOOTHVILLE     FOG       67  67 100 S3        30.07S VSB 1/4
BELLE CHASSE   FOG       69  67  93 SW6       30.06R VSB 1/4
BOGALUSA*        N/A     71  67  87 SW6       30.06R
GALLIANO*      FOG       60  59  97 MISG      30.07S VSB<1/4
NEW ROADS*     RAIN      59  58  97 W5        30.07R
GONZALES*      CLOUDY    70  70 100 W3        30.04S
HAMMOND*       NOT AVBL
HOUMA*         CLOUDY    69  68  98 CALM      30.05S FOG
PORT FOURCHON* FOG       68  68 100 SW5       30.10S VSB 1/4

$$

MSZ070-080>082-280900-
SOUTHERN MISSISSIPPI

CITY           SKY/WX    TMP DP  RH WIND       PRES   REMARKS
MCCOMB         LGT RAIN  68  66  93 W7        30.04R
GULFPORT       FOG       65  65 100 S6        30.05S VSB 3/4
BILOXI         FOG       64  64 100 S6        30.05S VSB 1/4
PASCAGOULA     CLOUDY    66  66 100 CALM      30.06S FOG

$$

COASTAL OBSERVATIONS
LAKE AND NEARSHORE STATIONS

STATION/POSITION TIME  TEMP    WIND        PRES    WAVE
                       AIR SEA DIR/SP/G            HT/PER
                 (UTC) (F)     (DEG/KT/KT) (MB)    (FT/S)
PASCAGOULA       0800   65     180/  8/ 10 1017.4
WAVELAND YACHT   0800   66     210/  4/  7 1016.9
GRAND ISLE       0800   65 64  290/  2/  2 1018.6
SOUTHWEST PASS   0800   67                 1018.4
NEW CANAL        0800   68 58  200/  6/  8 1018.0
SHELL BEACH      0800   68 61  210/  7/  9 1017.8

OFFSHORE STATIONS

STATION/POSITION TIME  TEMP    WIND        PRES    WAVE
                       AIR SEA DIR/SP/G            HT/PER
                 (UTC) (F)     (DEG/KT/KT) (MB)    (FT/S)
64 S DAUPHIN ISL 0800   73 74  180/ 14/ 17 1018.0    5/ 8

$$



USA.gov is the U.S. government's official web portal to all federal, state and local government web resources and services.